Wind_Speed
88 86 83 80 78 77 77 77 76 75 73 72 71 71 72 74 75 76 76 77 78 78 78 78 78 77 77 77 77 77 76 76 76 76 76 76 76 76 76 77 77 78 78 79 80 80 81 81 81 81 82 82 83 83 84 85 86 87 88 89 91 92 93 94 95 95 96 97 98 99 100 102 103 104 105 106 106 106 106 106 105 105 105 106 108 109
88 86 83 80 78 77 77 77 77 76 75 74 73 73 74 76 77 77 77 77 78 78 78 78 78 78 77 77 77 77 77 77 77 77 76 76 76 77 77 78 78 79 80 80 81 81 82 82 82 82 83 83 84 84 85 86 88 89 90 91 92 93 94 95 96 96 97 98 99 100 101 103 104 105 105 106 106 105 105 105 105 105 106 108 109 110
88 86 83 81 78 78 78 78 79 78 78 77 76 76 77 77 78 77 77 77 78 79 79 79 79 78 78 78 78 78 78 78 78 78 78 78 78 78 79 79 80 81 81 82 82 82 83 83 83 84 84 84 85 86 87 88 89 90 91 93 94 95 95 96 96 97 98 99 100 101 102 104 104 105 105 105 105 105 105 105 105 107 108 110 110 111
88 87 85 83 81 81 82 82 82 81 80 79 78 78 79 79 79 78 77 78 79 79 80 79 79 79 79 79 79 79 79 79 79 79 79 80 80 80 81 82 82 83 83 83 84 84 84 84 85 85 85 86 86 87 89 90 91 92 93 94 95 96 96 97 97 98 99 100 101 102 103 104 104 105 104 104 104 104 105 106 107 108 110 111 111 112
89 89 88 86 86 86 85 85 83 82 81 80 80 80 81 80 80 79 79 79 80 80 80 80 80 80 80 80 80 80 80 81 81 81 81 81 82 82 83 84 84 85 85 84 85 85 85 85 86 86 86 87 88 89 90 91 92 93 94 95 96 96 97 97 98 98 99 101 102 103 104 104 104 104 104 104 104 105 106 107 108 110 111 111 112 112
91 91 91 91 90 89 87 85 83 82 81 81 82 82 83 82 82 81 80 81 81 81 81 81 80 81 81 81 81 82 81 81 81 81 82 82 83 84 85 86 86 86 86 86 85 85 86 86 86 87 88 88 89 90 91 92 93 94 95 96 96 97 97 98 98 99 100 101 102 103 103 103 103 103 104 104 105 106 107 109 110 111 111 112 112 113
93 93 93 93 92 90 87 85 83 82 82 83 84 85 85 85 84 83 82 83 83 82 82 82 82 82 82 82 82 82 82 82 82 82 82 83 84 86 87 88 88 88 87 86 86 86 86 87 88 88 89 90 91 92 93 94 94 95 96 96 97 97 97 98 98 99 101 102 102 103 103 103 103 103 104 105 106 107 109 110 110 111 111 112 113 114
94 94 94 93 92 90 87 85 84 83 83 84 85 86 87 86 86 85 85 85 84 84 83 83 83 83 83 83 83 83 82 81 81 81 82 84 86 88 89 90 90 89 88 87 87 87 87 88 89 90 90 91 92 93 94 94 95 96 96 96 96 96 97 97 98 100 101 102 102 102 102 102 103 104 105 106 107 108 109 110 110 111 112 112 113 114
94 94 94 93 91 90 88 87 85 84 84 84 85 86 87 87 87 87 87 86 86 85 85 84 84 84 84 84 83 83 81 81 80 81 82 84 87 89 90 91 91 90 89 89 89 89 89 89 90 90 91 92 93 93 94 95 95 96 96 96 96 96 96 97 99 100 101 101 101 102 102 103 104 105 106 107 108 109 109 110 110 111 112 112 113 114
94 94 93 93 91 90 89 88 87 86 85 85 86 86 87 87 87 87 87 87 86 86 85 85 84 84 84 84 83 82 81 80 80 81 82 85 87 89 90 90 90 90 89 89 89 89 90 90 90 91 91 92 93 93 94 95 95 95 95 95 95 95 97 98 99 100 100 101 101 102 103 104 105 106 107 108 109 109 109 110 110 111 112 113 114 114
94 94 93 92 92 91 90 89 88 88 87 86 86 87 87 87 87 87 87 87 86 86 85 85 84 84 84 84 83 82 81 81 81 82 83 85 87 88 88 89 89 89 88 88 89 89 89 89 90 90 91 91 92 93 94 94 94 94 94 94 94 96 97 98 99 100 100 101 102 102 103 105 105 106 107 108 109 109 109 110 110 111 112 113 114 115
94 93 93 92 92 91 91 90 90 89 88 87 87 87 87 87 87 87 86 86 86 85 84 84 84 83 83 83 83 82 82 82 82 83 85 86 87 87 87 87 87 87 87 87 87 88 88 88 89 89 90 91 92 92 93 93 93 93 93 93 94 96 97 99 99 100 101 101 102 103 104 105 106 107 107 108 108 109 109 110 110 111 112 113 114 114
94 93 93 93 93 92 92 91 90 90 89 88 88 87 88 88 87 86 86 85 85 84 84 83 83 83 83 82 82 82 82 82 83 84 85 85 86 86 85 85 85 85 85 85 86 86 87 87 88 88 89 90 91 91 92 91 91 92 92 94 96 97 99 99 100 101 101 102 103 104 105 106 106 107 107 108 108 108 109 110 110 111 112 113 114 114
94 94 94 94 94 93 93 93 92 91 90 89 88 88 88 87 87 86 85 85 84 84 83 82 82 82 82 82 82 81 82 82 83 83 84 84 84 83 83 83 83 83 83 84 84 85 85 86 87 87 89 90 90 91 91 91 91 92 94 96 97 99 100 100 101 101 102 103 104 104 105 106 106 107 107 107 108 108 109 110 110 111 112 113 113 114
94 94 94 94 94 95 94 94 93 92 91 90 89 87 87 86 86 85 85 85 84 84 83 82 82 82 82 82 81 81 81 82 82 82 82 82 82 82 81 81 81 82 82 82 83 84 85 85 86 88 89 90 90 90 91 91 92 94 96 98 99 100 100 101 101 102 102 103 104 105 105 106 106 107 107 107 107 108 109 110 110 111 112 112 113 114
94 94 94 95 95 95 95 94 94 93 92 91 89 87 86 85 85 85 85 85 85 84 84 83 82 82 82 83 82 82 82 82 82 82 82 82 82 81 81 80 81 81 82 82 83 84 85 86 87 89 90 90 90 91 92 93 95 96 98 99 100 100 101 101 102 102 103 104 104 105 105 106 106 106 106 107 107 108 109 109 110 111 111 112 113 114
94 94 94 95 95 95 95 95 94 94 93 92 91 89 87 86 85 85 85 85 85 85 84 84 83 83 83 83 83 83 83 83 83 83 82 82 82 82 82 81 82 83 83 84 85 86 87 88 89 90 90 91 91 92 94 95 97 98 99 100 100 101 101 101 102 103 103 104 104 105 105 105 105 105 106 106 107 108 108 109 110 111 112 112 113 115
94 94 94 94 94 95 95 95 95 95 94 93 92 91 90 88 87 86 85 84 84 84 84 84 84 83 83 83 84 84 84 83 83 83 83 83 83 84 83 83 84 84 85 86 87 88 89 90 91 91 91 92 93 94 95 97 98 99 100 100 100 101 101 102 102 103 103 104 104 104 104 104 104 105 105 106 107 107 108 109 110 111 112 113 114 115
94 94 94 94 94 94 95 95 95 95 95 94 94 93 92 91 89 87 85 84 84 83 83 83 83 83 83 83 84 85 85 84 83 83 83 84 84 85 85 85 85 86 87 88 89 90 91 91 91 92 92 93 94 95 97 98 99 100 100 100 100 101 101 102 102 103 103 104 104 104 104 104 104 105 105 106 107 107 108 109 110 111 112 113 114 116
94 94 94 94 94 94 94 94 94 95 94 94 94 94 93 92 91 89 87 85 84 83 83 83 83 83 83 84 85 85 85 84 84 84 84 84 85 85 86 86 86 87 88 89 90 91 91 91 92 92 93 94 95 97 98 99 99 99 99 100 100 101 101 102 102 103 103 103 103 103 103 103 104 104 105 106 106 107 108 109 110 111 112 113 115 116
94 94 95 95 94 94 94 94 94 94 94 94 93 93 93 93 92 91 89 87 85 84 83 82 82 83 84 84 84 85 85 84 84 84 85 85 86 86 87 87 87 88 89 90 90 91 91 91 92 93 94 95 97 97 98 98 99 99 99 100 100 101 101 102 102 102 102 102 102 102 103 103 104 104 105 105 106 107 108 109 110 111 113 114 115 117
94 95 95 95 94 94 94 94 93 93 93 93 93 93 93 93 92 92 91 89 87 85 84 83 83 84 84 84 85 85 85 85 85 85 85 85 86 87 88 88 88 88 89 89 90 90 91 92 93 94 95 96 97 97 98 98 98 98 99 99 100 101 101 102 102 102 102 101 102 102 102 103 103 104 105 105 106 107 108 109 110 111 113 114 116 117
94 94 94 93 93 93 93 93 93 93 93 93 93 93 93 93 93 92 91 90 89 88 86 85 85 85 85 85 85 86 86 86 86 86 86 85 86 88 88 88 88 88 89 89 90 91 91 92 94 95 95 96 97 97 97 97 98 98 99 99 100 100 101 101 101 101 101 101 101 102 102 103 103 104 104 105 106 107 108 109 110 112 113 114 116 117
92 92 92 92 91 91 91 92 92 93 93 93 94 94 93 93 92 92 91 91 90 89 88 87 87 86 86 87 87 87 87 87 86 86 86 86 87 88 89 88 88 88 89 90 91 91 92 93 94 95 95 96 96 96 97 97 98 98 99 99 100 100 100 100 100 100 100 100 101 101 102 102 103 103 104 105 106 107 109 110 111 112 113 115 116 118
91 91 90 90 90 90 91 92 92 93 93 94 93 93 92 92 91 90 90 90 89 89 88 88 87 87 88 88 88 88 89 88 88 87 87 88 88 89 89 89 88 88 89 91 92 92 92 93 94 95 95 95 96 96 97 97 98 98 99 99 100 100 100 100 99 99 100 100 100 101 101 102 102 103 104 105 106 108 109 110 111 112 114 115 116 118
90 90 90 90 91 91 92 92 93 93 93 93 93 92 91 90 89 89 88 88 88 88 88 89 89 89 90 90 90 90 91 91 90 90 89 89 90 90 90 90 90 90 91 92 92 93 93 93 94 95 95 96 96 96 97 97 98 98 99 99 99 99 99 99 99 99 99 99 100 100 101 102 102 103 104 106 107 108 109 110 111 113 114 115 116 117
90 91 91 92 92 93 93 93 93 93 93 93 92 91 90 89 88 88 88 88 88 89 89 89 90 91 91 91 91 92 92 92 92 92 91 91 91 91 92 92 92 91 92 93 93 94 94 94 95 95 95 96 96 97 97 98 98 98 99 99 99 99 98 98 98 98 98 99 99 100 101 101 102 103 105 106 107 108 109 110 112 113 114 115 116 117
91 91 92 93 94 94 94 94 94 94 93 93 92 91 90 89 88 88 88 89 89 89 89 90 91 91 92 92 93 93 93 93 93 93 93 92 92 93 93 93 93 93 93 94 94 94 94 95 95 96 96 97 97 97 98 98 98 98 98 98 98 98 98 97 98 98 98 98 99 100 100 101 102 104 105 106 107 109 110 111 112 113 114 115 116 117
91 92 93 94 94 95 95 95 95 94 94 93 93 92 91 89 89 89 89 90 90 90 90 91 91 92 92 93 93 94 94 94 94 94 94 93 93 94 95 94 94 94 94 94 95 95 95 95 96 96 96 97 97 97 98 98 98 98 97 97 97 97 97 97 97 97 98 98 99 99 100 102 103 104 105 107 108 109 110 111 112 113 114 115 116 116
92 92 93 94 94 95 95 96 96 95 95 94 93 93 92 91 90 90 90 90 90 90 91 92 92 92 93 93 94 94 94 94 95 94 94 94 94 95 95 95 95 95 94 94 94 95 95 96 97 97 97 97 97 97 97 97 97 97 96 96 96 96 96 96 96 97 97 98 99 99 101 102 103 104 106 107 108 109 110 111 112 113 114 114 115 116
92 93 93 94 94 95 96 96 97 96 96 95 94 93 92 92 91 91 91 91 91 91 92 92 93 93 93 93 93 94 94 95 95 95 94 94 94 95 95 94 95 95 95 94 94 95 96 97 97 97 97 97 96 96 96 96 96 96 95 95 95 95 95 95 96 96 97 98 99 100 101 102 104 105 106 107 108 109 110 111 112 113 113 114 114 115
94 94 94 94 95 96 96 97 97 96 96 95 95 94 93 93 92 92 91 91 91 92 92 92 93 93 94 94 94 94 95 95 95 94 94 94 94 95 95 94 95 95 95 95 95 95 96 97 97 97 96 96 95 95 95 95 95 94 94 94 94 94 95 95 95 96 97 98 99 100 101 103 104 105 106 107 108 109 110 111 112 112 113 113 114 114
95 95 95 95 96 96 97 97 97 96 96 95 95 94 94 93 93 93 93 92 92 93 93 93 94 94 94 95 95 95 95 95 95 95 94 94 94 95 95 95 95 95 96 96 96 96 96 96 97 96 96 95 94 94 94 94 94 93 93 93 93 93 94 95 95 96 97 98 100 101 102 103 104 105 106 107 108 109 110 111 111 112 112 112 113 113
95 95 96 96 97 97 97 97 97 97 96 96 95 95 95 94 94 94 93 93 94 94 94 94 95 95 95 96 96 96 96 96 95 95 95 95 95 95 95 95 95 96 96 96 96 96 95 95 95 95 94 94 94 93 93 93 93 93 92 92 92 93 94 94 95 96 98 99 100 102 103 104 104 105 106 107 108 109 110 110 111 111 112 112 112 112
95 96 96 96 97 98 98 98 98 97 97 96 96 96 95 95 95 95 94 94 94 95 95 95 95 96 96 96 96 97 96 96 96 96 96 95 95 95 96 95 95 95 95 95 95 94 94 94 94 93 93 93 93 93 92 92 92 92 92 92 92 93 94 95 96 97 99 100 101 102 103 104 105 105 106 107 108 108 109 110 110 111 111 111 111 111
96 96 96 97 98 98 99 99 98 98 98 97 97 97 96 96 96 96 96 95 95 96 96 96 96 96 96 96 96 97 97 96 96 96 95 95 95 95 95 95 94 94 93 93 93 93 92 92 92 92 92 91 91 91 91 91 91 91 91 92 92 93 95 96 97 98 99 100 102 103 103 104 105 105 106 107 107 108 109 109 110 110 110 110 110 110
97 97 97 97 98 99 99 99 99 98 98 98 98 98 98 97 97 97 97 96 96 96 97 97 97 97 97 97 96 96 96 96 96 95 95 94 94 94 93 93 93 92 91 91 91 91 91 91 91 91 91 90 90 90 90 90 90 91 91 92 93 94 96 97 98 99 100 101 102 103 103 104 105 105 106 107 107 108 108 109 109 109 109 109 109 109
98 98 98 99 99 100 100 99 99 99 98 98 98 98 98 98 98 97 97 97 97 97 97 97 97 97 97 97 97 96 96 95 95 94 94 93 93 92 92 92 91 91 90 90 90 90 90 90 90 90 90 90 90 90 90 90 90 91 92 94 95 96 97 98 99 100 100 101 102 103 103 104 104 105 105 106 107 108 108 109 109 109 108 108 107 107
99 99 100 100 100 100 100 100 99 98 98 98 98 98 98 98 98 98 98 98 98 98 98 98 98 98 97 97 96 96 95 95 94 93 93 92 92 91 91 90 90 90 90 90 89 89 89 89 89 89 89 89 89 90 90 91 91 92 93 95 96 97 98 98 99 100 100 101 102 102 103 104 104 104 105 106 107 107 108 108 108 108 107 106 106 106
99 100 100 100 101 101 101 100 99 98 98 98 98 98 98 98 98 98 98 98 98 98 98 98 98 98 97 96 96 95 94 94 93 93 92 91 91 90 90 90 90 90 90 89 89 89 89 89 89 89 89 89 90 90 91 92 92 93 94 95 96 97 98 99 99 100 100 101 101 102 102 103 103 104 105 106 106 107 107 107 107 106 105 105 104 103
99 100 100 100 101 101 101 100 99 99 98 98 98 98 98 98 98 98 98 98 98 98 98 98 98 97 96 96 95 94 93 93 92 92 91 91 90 90 90 90 90 90 90 89 89 89 89 89 89 90 90 90 90 91 92 92 93 94 95 95 96 97 98 99 99 100 100 100 101 101 102 102 103 104 105 106 106 107 107 106 105 104 104 103 102 100
98 99 99 100 101 101 101 100 100 99 99 99 99 99 99 99 99 99 99 99 99 99 99 98 98 97 97 96 95 94 93 92 92 91 91 90 90 90 90 90 90 90 90 90 90 90 90 90 90 90 90 91 91 92 92 93 94 95 95 96 97 98 98 99 99 99 100 100 101 101 102 102 103 104 105 106 106 106 105 105 104 103 102 101 99 97
96 97 98 99 99 100 100 100 100 100 99 99 99 100 100 100 100 100 100 100 100 100 99 99 98 98 97 96 95 94 93 93 92 92 91 91 91 90 90 90 90 90 90 90 90 90 90 91 91 91 91 92 92 92 93 94 95 96 96 97 97 97 98 98 99 99 100 100 101 101 102 103 103 104 105 105 105 105 104 103 102 101 99 97 95 93
93 94 95 97 98 99 99 100 100 100 100 100 100 100 100 100 100 100 100 100 100 100 99 99 98 98 97 97 96 95 94 93 93 92 92 92 91 91 91 91 91 91 90 90 90 90 91 91 91 92 92 92 93 93 94 95 95 96 97 97 97 97 97 98 99 99 100 100 101 102 103 103 104 105 105 105 104 103 102 101 100 99 96 94 91 88
90 91 93 94 96 97 98 99 99 100 100 100 100 100 100 100 100 100 100 100 100 100 99 99 98 98 98 97 97 96 95 95 94 93 93 93 92 92 92 92 92 91 91 91 91 91 91 91 92 92 93 93 94 94 95 95 96 96 97 97 98 98 98 99 99 100 100 101 102 103 103 104 104 104 104 103 102 102 101 100 98 95 93 90 87 83
87 89 91 92 93 95 96 97 98 98 99 99 100 100 100 100 100 100 100 100 100 100 99 99 98 98 98 98 97 97 96 96 95 94 94 94 93 93 93 93 92 92 92 92 92 92 92 92 93 93 94 94 94 95 95 96 96 97 97 98 98 98 99 99 100 100 101 101 102 103 104 104 103 103 102 101 101 100 99 97 95 91 88 85 82 79
85 87 88 89 91 92 93 94 95 96 97 98 98 99 99 99 99 100 100 100 100 100 100 99 99 99 99 99 98 98 97 97 96 96 95 95 95 94 94 94 94 94 93 93 93 93 94 94 94 94 94 95 95 96 96 97 97 97 97 98 98 98 99 100 100 101 102 102 102 103 103 103 102 101 100 100 99 98 97 94 91 87 83 79 76 74
82 84 85 86 88 89 90 91 93 94 95 96 97 98 98 98 99 99 100 100 100 100 100 100 100 100 100 99 99 98 98 98 97 97 96 96 96 96 95 95 95 95 95 95 95 95 95 95 95 95 95 95 95 96 96 97 97 97 97 98 98 99 99 100 101 101 102 102 102 102 102 101 100 99 98 98 97 96 94 90 86 82 78 74 71 69
78 80 81 83 84 85 87 88 89 91 93 94 95 96 96 97 98 99 99 100 100 100 101 101 101 101 100 100 99 98 98 98 98 97 97 97 97 97 97 97 96 96 96 96 96 96 96 96 96 96 96 95 95 95 96 96 97 97 98 98 99 99 100 100 101 102 102 101 101 101 100 98 98 97 96 95 94 93 90 86 81 76 72 69 67 65
74 76 77 78 80 81 82 84 85 87 89 90 92 93 94 95 96 97 97 98 99 99 100 100 100 100 100 100 99 98 98 98 98 98 98 98 98 98 98 97 97 97 97 97 97 97 97 97 97 97 97 96 96 95 96 97 97 98 99 99 99 100 100 100 101 101 101 100 99 98 97 96 95 95 94 93 91 88 85 80 75 70 67 65 63 62
71 72 73 74 75 76 77 78 80 82 83 85 87 89 90 91 92 93 94 95 96 97 98 98 98 99 99 99 98 98 98 98 99 99 99 99 98 98 99 99 98 98 98 98 98 98 98 97 97 97 98 97 97 97 96 97 98 99 99 100 100 100 100 100 100 99 98 97 96 95 94 94 93 92 91 89 87 83 79 74 69 65 62 61 60 59
Wind_Direction
222 224 226 228 230 231 231 231 231 231 231 232 233 234 236 237 238 239 240 242 243 244 246 247 248 250 251 252 254 255 257 258 260 261 262 264 265 267 268 269 270 272 272 273 274 275 276 277 278 279 280 282 283 284 285 286 287 288 289 289 290 291 292 293 293 294 295 296 297 298 298 299 300 301 302 303 304 305 306 307 308 309 310 311 312 314
222 224 226 227 229 230 230 230 230 229 229 229 230 232 234 236 237 238 240 242 243 245 246 247 248 249 251 252 254 255 257 258 260 261 263 264 266 267 268 269 270 271 272 273 274 275 276 277 278 279 280 282 283 284 285 286 287 288 289 289 290 291 292 293 293 295 295 296 297 298 298 299 300 301 302 303 304 305 306 307 308 309 310 311 313 314
222 224 225 227 228 228 229 229 228 228 227 228 229 231 234 236 238 239 240 242 243 245 246 247 248 250 251 252 254 255 257 258 260 261 263 264 266 267 268 269 270 271 272 273 274 275 276 277 278 279 280 282 283 284 285 286 287 287 288 289 290 291 292 293 294 295 295 296 297 298 298 299 300 301 302 303 305 306 306 307 308 309 311 312 313 314
222 224 225 226 227 227 227 227 226 227 227 228 229 232 235 237 239 240 241 242 244 245 247 248 249 250 251 253 254 256 257 259 260 262 263 265 266 267 268 269 270 270 271 272 273 274 276 277 278 280 281 282 283 284 285 286 286 287 288 289 290 291 292 293 294 295 295 296 297 297 298 299 300 302 303 304 305 306 307 307 309 310 311 313 314 314
223 224 225 226 226 226 226 226 226 226 227 228 230 233 236 238 240 241 242 244 245 246 248 249 250 251 252 254 255 256 258 259 261 262 263 265 266 267 268 269 269 270 271 272 273 275 276 277 279 280 281 282 283 284 285 285 286 287 288 289 290 291 292 293 294 294 295 296 297 298 299 300 301 302 303 304 305 306 307 308 309 311 312 313 314 314
223 224 225 226 227 227 227 227 227 227 228 229 231 233 236 238 240 242 243 245 246 248 249 250 251 252 253 254 256 257 258 260 261 263 264 265 266 267 268 268 269 270 271 272 273 275 276 278 279 280 281 282 283 284 284 285 286 287 288 289 290 291 292 293 294 294 295 296 297 298 299 300 301 302 303 304 305 306 307 309 310 311 312 313 314 315
223 225 226 227 228 228 228 228 228 229 229 230 232 234 236 238 240 242 244 245 247 248 250 251 252 253 254 255 256 258 259 260 262 263 265 266 266 267 267 268 269 270 271 272 273 275 276 278 279 280 281 282 283 283 284 285 286 287 288 289 290 291 292 293 294 294 295 296 297 298 299 301 302 303 304 305 306 307 308 309 311 312 313 313 314 315
224 225 227 228 229 230 230 230 230 230 231 232 233 234 236 238 240 242 244 246 247 249 250 252 253 254 255 256 257 258 260 261 262 264 265 266 266 267 267 268 269 270 271 273 274 275 276 277 279 280 281 282 282 283 284 285 286 287 288 289 290 291 292 293 294 294 295 296 298 299 300 301 302 303 304 305 306 308 309 310 311 312 313 314 314 315
224 226 227 229 230 231 231 231 231 232 232 233 234 235 237 239 240 242 244 246 248 249 251 252 253 255 256 257 258 259 260 261 262 264 265 266 266 267 268 269 270 271 272 273 275 276 277 277 278 279 280 281 282 283 284 285 286 287 288 289 290 291 292 293 294 295 296 297 298 299 300 301 303 304 305 306 307 308 309 310 311 312 313 314 315 315
225 226 228 229 230 231 232 232 233 233 234 235 236 237 238 239 241 243 244 246 248 249 251 252 253 255 256 257 258 259 260 261 262 263 264 266 267 268 269 270 272 273 274 275 276 277 277 278 279 280 281 282 282 283 284 285 286 287 288 289 291 292 293 293 294 295 296 298 299 300 301 302 303 304 305 306 308 309 310 311 311 312 313 314 315 316
225 226 228 229 230 231 232 233 233 234 235 236 237 238 239 240 241 243 245 246 248 249 251 252 253 255 256 257 258 259 260 261 262 263 264 266 267 269 270 272 273 275 276 277 278 278 279 280 280 281 282 282 283 284 285 286 287 288 289 290 291 292 293 294 295 296 297 298 299 300 301 302 304 305 306 307 308 309 310 311 311 312 313 314 315 316
225 226 227 229 230 231 232 233 233 234 235 236 238 239 240 241 242 244 245 247 248 249 251 252 253 255 256 257 258 259 260 261 262 263 264 266 267 269 271 272 274 275 276 278 279 279 280 281 282 282 283 284 284 285 286 287 288 289 290 291 292 293 294 295 296 297 298 299 300 301 302 303 304 305 306 307 308 309 310 311 312 312 313 314 315 316
225 226 227 229 230 231 232 233 233 234 235 237 238 239 241 241 243 244 245 247 248 250 251 252 253 255 256 257 258 260 261 262 263 264 265 266 268 269 271 273 274 275 277 278 279 280 281 282 282 283 284 284 285 286 287 288 289 290 291 292 292 293 294 295 296 297 298 299 300 301 302 303 304 305 306 307 308 309 310 311 312 312 313 314 315 316
225 226 227 229 230 231 232 232 233 234 235 236 238 239 241 242 243 244 245 247 248 249 251 252 253 255 256 257 258 260 261 262 263 264 265 267 268 269 271 273 274 275 276 278 279 280 280 281 282 283 283 284 285 286 287 288 289 290 291 292 292 293 294 295 296 297 298 299 300 301 302 303 304 305 306 307 308 309 310 311 312 312 313 314 315 316
225 226 227 229 230 231 232 233 233 234 235 236 237 239 241 242 244 245 246 247 248 249 251 252 253 255 256 257 258 260 261 262 263 264 265 267 268 269 271 272 273 275 276 277 278 279 280 280 281 282 282 283 285 286 287 288 289 290 290 291 292 293 294 295 296 297 298 299 300 301 302 304 305 306 307 308 308 309 310 311 312 312 313 314 315 316
225 226 228 229 230 231 232 233 233 234 235 236 237 238 240 242 244 245 246 247 248 249 250 252 253 254 256 257 258 259 260 262 263 264 265 266 268 269 270 271 272 274 275 276 276 277 278 279 280 281 282 283 284 286 287 288 288 289 290 291 292 293 294 295 296 297 298 299 300 301 303 304 305 306 307 308 309 309 310 311 312 312 313 314 315 316
225 227 228 229 230 231 232 233 234 234 235 236 237 238 239 241 243 244 246 247 248 249 251 252 253 255 256 257 258 259 260 261 263 264 265 266 267 268 269 270 271 272 273 274 275 276 277 278 279 280 281 283 284 285 286 287 288 288 289 291 292 293 294 295 296 297 298 299 300 302 303 304 305 306 307 308 309 309 310 311 311 312 313 314 315 316
226 227 228 229 231 232 233 233 234 235 235 236 237 238 239 240 242 243 245 247 248 250 251 252 254 255 256 258 259 259 260 262 263 264 265 266 267 268 269 269 270 271 272 273 274 275 276 277 279 280 281 283 284 285 285 286 287 288 289 290 292 293 294 295 296 297 298 299 301 302 303 304 305 306 307 308 308 309 310 310 311 312 313 314 315 316
226 227 228 229 231 232 233 234 234 235 236 236 237 238 239 240 241 242 244 246 248 250 251 253 254 256 257 258 259 260 260 261 262 264 265 265 266 267 268 269 269 270 271 272 273 275 276 277 278 280 281 282 283 284 285 286 287 288 289 290 292 293 294 295 296 297 299 300 301 302 303 304 305 306 307 307 308 309 309 310 311 312 313 314 315 316
226 227 228 229 231 232 233 234 235 235 236 237 238 238 239 240 241 242 243 245 247 249 251 253 254 256 257 258 258 259 260 261 262 263 264 264 265 266 267 268 269 270 271 272 273 274 276 277 278 279 280 281 282 283 284 285 287 288 289 290 292 293 294 295 296 297 299 300 301 302 303 304 305 306 306 307 308 309 309 310 311 312 313 314 315 315
227 228 229 230 231 232 233 234 235 236 236 237 238 239 240 241 241 242 243 244 246 248 250 252 253 255 256 257 258 259 260 260 261 262 263 263 264 265 266 267 268 269 270 272 273 274 276 277 278 279 280 281 282 283 284 285 287 288 289 290 292 293 294 295 296 298 299 300 301 302 303 304 305 306 306 307 308 308 309 310 311 312 313 314 315 315
227 228 229 230 231 232 234 235 235 236 237 238 239 239 240 241 242 243 243 244 245 247 249 250 252 253 255 256 257 258 259 259 260 261 262 263 264 265 266 267 268 269 270 272 273 274 275 276 277 278 279 280 282 283 284 286 287 288 289 291 292 293 294 295 297 298 299 300 301 302 303 304 305 305 306 307 307 308 309 310 311 312 313 314 315 315
228 229 230 231 232 234 235 236 237 237 238 239 239 240 241 241 242 243 244 245 246 247 248 249 250 252 253 254 255 257 257 258 259 260 261 262 263 264 265 266 268 269 270 271 273 274 275 276 277 278 279 281 282 283 285 286 287 288 290 291 292 293 294 296 297 298 299 300 301 302 303 304 304 305 306 306 307 308 309 310 311 312 313 314 314 315
229 230 231 232 233 235 236 237 238 239 239 240 240 241 242 242 243 244 245 246 246 247 248 249 249 250 251 252 254 255 256 257 258 259 260 261 263 264 265 266 267 269 270 271 272 273 275 276 277 278 280 281 282 283 285 286 287 289 290 291 292 293 294 296 297 298 299 300 301 302 303 303 304 305 305 306 307 308 308 310 311 312 313 314 314 315
230 231 232 233 234 235 236 237 238 239 240 240 241 242 242 243 244 245 246 247 247 248 248 249 249 249 250 251 252 254 255 256 258 259 260 261 262 263 265 266 267 268 270 271 272 274 275 276 277 279 280 281 282 284 285 286 287 289 290 291 292 293 295 296 297 298 299 300 301 302 302 303 304 304 305 306 307 307 308 309 311 312 313 313 314 315
230 231 232 233 234 235 236 237 238 239 240 240 241 242 243 243 244 245 246 247 247 248 248 248 249 249 250 251 252 253 254 256 257 258 260 261 262 263 265 266 267 268 270 271 272 274 275 276 278 279 280 281 282 284 285 286 287 288 290 291 292 294 295 296 297 298 299 300 301 301 302 303 303 304 305 306 306 307 308 309 311 312 313 314 314 315
230 231 232 232 233 234 235 236 238 239 240 241 241 242 242 243 244 245 245 246 247 247 248 248 249 249 250 251 252 253 254 256 257 258 259 260 262 263 265 266 267 269 270 271 273 274 275 276 278 279 280 281 282 283 285 286 287 289 290 291 293 294 295 296 297 298 299 300 300 301 302 302 303 304 304 305 306 307 308 309 311 312 313 313 314 315
230 231 232 233 234 234 235 236 237 238 239 240 241 242 242 242 243 244 244 245 246 246 247 248 249 249 250 251 252 253 254 256 257 258 259 260 262 263 265 266 267 269 270 271 273 274 275 276 277 278 280 281 282 283 285 286 287 289 290 292 293 294 295 296 297 298 299 299 300 301 301 302 303 303 304 305 306 307 308 310 311 312 313 313 314 315
231 232 233 233 234 235 236 237 237 238 239 240 241 241 241 242 242 243 244 244 245 246 247 247 248 250 251 252 253 254 255 256 257 258 259 260 262 263 264 266 267 269 270 271 272 273 275 276 277 278 280 281 282 284 285 286 288 289 291 292 293 294 295 296 297 298 298 299 300 300 301 302 302 303 304 305 306 307 308 309 311 312 312 313 314 315
231 232 233 234 235 236 236 237 238 239 239 240 241 241 242 242 242 243 244 244 245 246 247 248 248 250 251 252 253 254 255 256 257 258 259 261 262 263 265 266 267 269 270 271 272 273 275 276 277 278 280 281 283 284 286 287 288 290 291 292 293 294 295 296 297 297 298 299 299 300 301 301 302 303 304 305 306 307 308 309 310 311 312 313 314 315
231 232 233 234 235 236 237 238 238 239 240 240 241 242 242 243 243 243 244 245 246 246 247 248 249 250 251 252 253 254 255 256 257 259 260 261 262 263 265 266 267 269 270 271 272 273 275 276 277 279 280 282 283 285 286 287 289 290 291 292 293 294 295 296 296 297 298 298 299 300 300 301 302 303 304 305 306 307 308 309 310 311 312 313 314 315
231 231 232 233 235 236 237 238 239 239 240 241 242 242 243 244 244 245 245 246 246 247 248 249 249 250 251 252 253 254 255 257 258 259 260 261 262 264 265 266 267 269 270 271 272 274 275 277 278 280 281 283 284 285 286 288 289 290 291 292 293 294 294 295 296 297 297 298 298 299 300 301 302 303 304 305 306 307 308 309 310 311 312 313 314 315
231 232 232 233 235 236 237 238 239 240 240 241 242 243 244 244 245 245 246 247 247 248 249 249 250 251 252 253 254 255 256 257 258 260 261 262 263 264 265 266 268 269 271 272 273 275 276 278 279 280 282 283 284 285 287 288 289 290 291 292 293 293 294 295 295 296 297 297 298 299 300 301 302 303 304 305 306 307 308 309 310 311 312 313 314 315
232 233 233 234 235 236 237 239 240 240 241 242 243 243 244 245 246 246 247 248 248 249 250 251 251 252 253 253 254 255 256 258 259 260 261 262 263 265 266 267 269 270 272 273 274 276 277 278 280 281 282 283 284 285 286 288 289 290 291 291 292 293 294 294 295 295 296 297 298 299 300 301 302 303 304 305 306 307 308 309 310 311 312 313 314 315
233 234 235 235 236 237 238 239 240 241 242 243 243 244 245 245 246 247 248 249 249 250 251 252 252 253 254 254 255 256 257 258 260 261 262 263 264 266 267 268 270 271 273 274 276 277 278 279 280 281 282 284 285 285 286 287 288 289 290 291 292 292 293 294 294 295 296 297 298 299 300 301 302 303 304 305 306 307 308 309 310 311 312 313 314 315
233 234 235 236 237 238 239 240 241 242 242 243 244 245 245 246 247 247 248 249 250 251 252 252 253 254 255 255 256 257 258 260 261 262 263 264 266 267 268 270 271 273 274 275 276 277 279 279 281 282 282 284 284 285 286 287 288 289 290 290 291 292 292 293 294 295 296 297 298 299 300 301 302 303 304 305 306 307 308 309 310 311 312 313 314 315
233 234 235 236 238 239 240 240 241 242 243 244 245 245 246 247 247 248 249 249 250 251 252 253 254 255 256 257 258 259 260 261 262 263 265 266 267 268 270 271 272 273 274 276 277 278 279 280 281 282 283 283 284 285 286 287 288 288 289 290 290 291 292 293 294 295 296 297 298 299 300 301 302 303 304 305 306 307 308 309 310 311 312 313 314 315
234 234 235 236 238 239 240 241 242 242 243 244 245 246 247 247 248 249 249 250 251 252 253 254 255 255 256 258 258 260 261 262 263 264 266 267 268 269 270 272 273 274 275 276 277 278 279 280 281 282 282 283 284 285 285 286 287 288 289 289 290 291 292 293 294 295 296 297 298 299 300 301 302 303 304 305 306 307 308 309 309 311 312 313 314 315
235 235 236 237 238 239 240 241 242 243 244 245 245 246 247 248 249 249 250 251 252 253 253 254 255 256 257 258 259 260 261 263 264 265 266 267 269 270 271 272 273 274 275 276 277 278 279 280 280 281 282 283 283 284 285 286 287 287 288 289 290 291 292 293 294 295 296 297 298 298 300 301 302 303 304 305 306 307 308 308 309 311 312 313 314 315
237 237 237 238 239 240 241 242 242 243 244 245 246 247 248 248 249 250 251 252 253 253 254 255 256 257 258 259 260 261 262 263 264 266 267 268 269 270 271 273 274 274 275 276 277 278 278 279 280 280 281 282 283 284 285 286 286 287 288 289 290 291 292 293 294 295 295 296 297 298 299 301 302 303 304 305 306 306 307 308 310 311 312 314 315 315
238 238 238 239 240 241 242 242 243 244 245 246 246 247 248 249 250 250 251 252 253 254 255 256 257 258 259 260 261 262 263 264 265 266 267 268 270 271 272 273 273 274 275 276 277 277 278 279 279 280 281 282 282 283 284 285 286 287 288 289 289 290 291 292 293 294 295 296 297 298 299 301 302 303 304 305 305 306 307 308 310 311 313 314 314 315
239 239 239 240 240 241 242 243 244 245 245 246 247 248 249 249 250 251 252 253 254 255 256 257 258 258 259 260 261 262 263 264 265 266 267 268 270 270 271 272 273 274 275 275 276 277 277 278 279 280 281 281 282 283 284 285 286 287 287 288 289 290 291 292 293 294 295 296 297 298 299 301 302 303 303 304 305 306 307 308 310 311 313 314 314 314
241 241 241 241 242 242 243 244 244 245 245 246 247 248 249 250 251 252 253 253 254 255 256 257 258 259 259 260 261 262 263 264 265 266 267 268 269 270 271 272 272 273 274 275 276 276 277 278 279 279 280 281 282 283 284 284 285 286 287 288 289 290 291 292 293 294 295 296 297 298 299 300 301 302 303 304 305 306 307 308 310 312 313 313 313 313
242 242 242 243 243 243 244 244 245 245 246 246 247 248 249 250 252 252 253 254 255 255 256 257 258 259 260 260 261 262 263 264 265 266 267 268 269 270 270 271 272 273 273 274 275 276 277 278 278 279 280 281 282 282 283 284 285 286 287 287 288 289 290 291 292 294 295 296 297 298 299 300 301 302 303 303 304 306 307 309 310 312 312 313 312 312
241 242 243 243 243 244 244 245 246 246 247 247 248 248 250 251 252 253 253 254 255 256 257 258 259 259 260 261 262 263 264 265 265 266 267 268 268 269 270 270 271 272 273 274 274 275 276 277 278 279 280 281 281 282 283 284 285 285 286 287 288 289 290 291 292 293 294 296 297 298 299 300 301 301 302 303 304 306 307 309 311 312 312 312 311 310
241 242 242 243 244 244 245 246 246 247 248 248 249 249 250 251 252 253 254 255 256 257 258 259 259 260 261 262 263 264 264 265 266 266 267 268 268 269 269 270 271 272 272 273 274 275 276 276 277 278 279 280 281 282 282 283 284 285 286 287 288 289 290 291 292 293 294 295 296 297 298 299 300 301 302 303 304 306 308 309 310 311 311 310 310 309
241 241 242 242 243 244 244 245 246 247 248 249 249 250 251 251 252 253 254 256 257 258 259 259 260 261 262 263 263 264 265 265 266 266 267 267 268 268 269 270 270 271 272 273 274 274 275 276 277 278 279 280 281 281 282 283 284 285 285 286 287 288 290 291 292 293 294 295 296 297 298 299 300 301 302 303 305 306 308 309 310 310 310 309 308 308
242 242 242 243 243 243 244 245 245 246 247 248 249 250 251 251 252 253 254 255 257 258 259 260 260 261 262 263 263 264 265 265 266 266 267 267 268 268 269 270 270 271 272 273 273 274 275 276 277 277 278 279 280 281 282 283 283 284 285 286 287 288 289 290 292 293 294 295 296 297 298 298 299 301 302 303 305 306 308 309 309 309 308 307 307 307
243 243 243 243 244 244 244 244 245 245 246 247 248 249 250 251 252 253 254 255 256 257 258 259 260 261 262 262 263 264 265 265 266 266 267 267 268 268 269 270 270 271 272 273 273 274 275 276 276 277 278 279 279 280 281 282 283 284 285 286 287 288 289 290 291 292 293 294 295 296 297 298 299 300 302 303 305 306 307 308 308 308 307 306 306 307
244 244 244 244 245 245 245 245 245 246 246 247 248 249 249 250 251 252 253 254 255 256 257 258 259 260 261 262 263 264 264 265 265 266 266 267 268 268 269 270 270 271 272 273 273 274 275 275 276 277 277 278 279 280 280 281 282 283 284 285 287 288 289 290 291 292 293 294 295 296 297 298 299 301 302 303 305 306 307 307 307 306 305 305 305 306
245 245 245 245 245 246 246 246 246 247 247 247 248 249 249 250 251 252 253 254 255 255 257 257 258 259 260 261 262 263 264 264 265 265 266 267 268 268 269 270 270 271 272 272 273 274 274 275 276 276 277 278 278 279 280 281 282 283 284 285 287 288 289 290 291 291 292 293 294 296 297 298 299 301 302 303 305 305 306 306 305 304 304 305 305 306
Height
10604 10606 10609 10611 10614 10616 10618 10621 10623 10624 10625 10626 10627 10628 10627 10625 10623 10623 10624 10625 10625 10625 10626 10626 10626 10628 10628 10629 10630 10630 10631 10631 10631 10631 10632 10633 10633 10633 10633 10633 10633 10633 10632 10631 10631 10630 10630 10629 10628 10628 10627 10626 10626 10625 10623 10622 10621 10620 10618 10616 10615 10613 10612 10610 10608 10607 10605 10603 10600 10597 10595 10592 10589 10586 10584 10581 10579 10576 10573 10570 10567 10564 10560 10557 10553 10550
10602 10604 10606 10609 10611 10612 10613 10616 10619 10620 10620 10621 10623 10623 10621 10618 10618 10619 10621 10621 10621 10621 10622 10622 10623 10624 10625 10625 10626 10626 10627 10628 10628 10628 10629 10630 10630 10630 10630 10630 10629 10628 10628 10627 10626 10626 10626 10625 10625 10624 10624 10623 10622 10621 10620 10618 10617 10616 10614 10613 10611 10609 10608 10606 10605 10603 10601 10598 10596 10593 10590 10588 10585 10583 10580 10578 10575 10572 10569 10566 10563 10560 10556 10553 10549 10545
10598 10600 10603 10604 10605 10606 10608 10610 10613 10615 10616 10617 10618 10618 10616 10614 10614 10616 10618 10618 10618 10618 10618 10619 10620 10620 10621 10622 10623 10623 10624 10624 10625 10625 10626 10626 10626 10626 10626 10625 10625 10625 10624 10623 10623 10622 10621 10621 10621 10621 10620 10620 10619 10618 10616 10615 10613 10611 10610 10608 10606 10605 10603 10602 10600 10598 10596 10594 10591 10589 10586 10583 10581 10578 10576 10573 10571 10568 10565 10561 10558 10555 10552 10548 10545 10540
10593 10596 10598 10600 10601 10601 10601 10603 10606 10609 10611 10613 10615 10614 10612 10611 10611 10613 10614 10614 10613 10613 10614 10615 10616 10617 10618 10619 10620 10620 10621 10621 10621 10622 10623 10623 10622 10622 10621 10621 10621 10620 10620 10619 10619 10618 10618 10618 10618 10618 10617 10616 10615 10613 10612 10610 10609 10607 10606 10604 10603 10601 10600 10598 10596 10594 10592 10590 10587 10585 10582 10580 10577 10575 10572 10570 10566 10564 10561 10558 10554 10551 10548 10544 10540 10535
10589 10591 10593 10594 10595 10595 10595 10597 10600 10603 10606 10609 10611 10610 10609 10608 10608 10609 10610 10610 10610 10610 10610 10612 10613 10615 10615 10616 10616 10617 10618 10618 10618 10619 10619 10619 10618 10618 10617 10616 10616 10616 10615 10615 10615 10615 10615 10615 10615 10614 10613 10612 10611 10609 10608 10606 10605 10603 10601 10600 10598 10597 10595 10594 10592 10590 10588 10585 10583 10580 10578 10576 10573 10571 10568 10565 10563 10560 10556 10553 10550 10546 10543 10539 10535 10531
10583 10584 10585 10585 10585 10586 10589 10593 10598 10601 10604 10606 10606 10606 10605 10604 10605 10605 10606 10606 10606 10606 10607 10609 10610 10611 10612 10613 10613 10614 10615 10615 10615 10616 10615 10615 10615 10613 10613 10611 10611 10611 10611 10612 10612 10612 10612 10611 10611 10610 10609 10608 10606 10605 10603 10602 10601 10599 10598 10596 10595 10593 10591 10590 10588 10585 10583 10581 10578 10576 10575 10572 10570 10567 10564 10561 10558 10555 10552 10548 10545 10541 10538 10534 10530 10526
10576 10577 10578 10578 10580 10583 10589 10593 10597 10599 10601 10602 10602 10602 10601 10601 10601 10602 10602 10602 10602 10603 10605 10606 10607 10608 10608 10609 10610 10610 10611 10612 10613 10612 10612 10611 10610 10608 10607 10606 10606 10607 10608 10609 10610 10610 10609 10608 10607 10606 10605 10603 10602 10601 10599 10598 10596 10595 10593 10592 10591 10590 10588 10586 10583 10581 10579 10576 10575 10573 10570 10568 10565 10563 10560 10557 10554 10551 10548 10544 10541 10537 10533 10530 10525 10521
10571 10573 10574 10576 10579 10583 10588 10591 10594 10596 10597 10598 10598 10598 10598 10598 10598 10599 10599 10599 10600 10601 10601 10603 10603 10604 10605 10605 10606 10607 10608 10610 10610 10609 10608 10606 10605 10603 10601 10601 10602 10603 10605 10606 10606 10606 10606 10605 10604 10602 10601 10600 10598 10596 10595 10594 10592 10591 10590 10588 10587 10586 10584 10581 10580 10577 10575 10573 10571 10569 10566 10564 10561 10558 10556 10553 10550 10546 10543 10540 10536 10533 10529 10525 10521 10517
10567 10569 10571 10574 10577 10581 10584 10587 10590 10592 10593 10594 10594 10594 10595 10595 10595 10595 10596 10596 10597 10598 10598 10599 10600 10600 10601 10601 10603 10604 10606 10606 10606 10606 10605 10602 10599 10597 10596 10597 10598 10600 10601 10602 10603 10602 10601 10601 10600 10598 10597 10596 10594 10593 10591 10590 10588 10587 10586 10585 10583 10582 10580 10578 10575 10573 10571 10569 10567 10565 10562 10560 10557 10554 10551 10548 10545 10542 10539 10535 10531 10528 10525 10521 10516 10513
10563 10565 10568 10571 10574 10576 10580 10582 10585 10587 10589 10590 10590 10590 10591 10591 10591 10593 10593 10594 10594 10595 10595 10596 10596 10596 10597 10598 10599 10601 10603 10603 10603 10602 10600 10597 10595 10593 10593 10594 10595 10596 10597 10598 10598 10597 10597 10596 10595 10594 10593 10591 10590 10588 10587 10586 10585 10584 10583 10581 10580 10578 10576 10573 10571 10569 10567 10565 10563 10561 10558 10556 10553 10550 10547 10544 10541 10538 10535 10531 10527 10524 10520 10516 10513 10508
10560 10562 10565 10567 10570 10573 10575 10578 10580 10582 10585 10585 10586 10587 10588 10588 10588 10589 10590 10590 10590 10591 10592 10593 10593 10593 10594 10595 10596 10597 10598 10599 10598 10598 10596 10593 10591 10590 10590 10591 10592 10592 10592 10592 10592 10592 10591 10591 10590 10589 10588 10587 10585 10584 10583 10582 10581 10580 10579 10578 10576 10573 10571 10569 10567 10565 10563 10561 10559 10556 10554 10551 10549 10546 10543 10540 10537 10534 10530 10526 10523 10520 10516 10512 10508 10505
10556 10558 10561 10564 10566 10568 10571 10573 10575 10578 10580 10581 10582 10583 10584 10585 10585 10585 10585 10586 10586 10588 10589 10589 10590 10591 10591 10591 10592 10593 10594 10594 10593 10593 10591 10590 10589 10589 10589 10589 10589 10589 10588 10588 10588 10587 10586 10585 10585 10584 10583 10581 10581 10580 10578 10578 10577 10576 10575 10573 10571 10569 10567 10565 10563 10561 10560 10558 10555 10553 10550 10548 10545 10542 10539 10536 10533 10530 10526 10523 10519 10515 10511 10508 10505 10501
10553 10555 10558 10560 10562 10564 10566 10568 10571 10573 10575 10576 10577 10578 10578 10579 10580 10581 10582 10583 10583 10585 10585 10586 10587 10587 10588 10588 10588 10589 10590 10589 10588 10588 10587 10587 10586 10586 10587 10586 10586 10586 10585 10585 10583 10583 10582 10581 10580 10579 10578 10577 10576 10575 10575 10574 10573 10572 10570 10568 10566 10565 10563 10561 10560 10558 10556 10553 10551 10549 10546 10544 10541 10538 10535 10532 10529 10525 10522 10518 10515 10511 10508 10505 10501 10497
10550 10552 10555 10556 10558 10560 10561 10564 10566 10568 10570 10571 10573 10573 10573 10575 10576 10578 10579 10580 10580 10581 10582 10583 10583 10584 10584 10585 10585 10586 10585 10585 10584 10584 10583 10583 10583 10584 10584 10584 10583 10583 10582 10581 10580 10579 10578 10578 10576 10575 10574 10573 10573 10572 10571 10571 10570 10568 10566 10564 10562 10561 10559 10558 10556 10554 10552 10550 10548 10545 10543 10540 10538 10535 10531 10528 10525 10521 10518 10515 10511 10508 10504 10501 10497 10493
10545 10548 10550 10552 10553 10555 10557 10560 10562 10564 10566 10568 10570 10570 10571 10572 10573 10574 10575 10576 10576 10578 10579 10580 10580 10580 10580 10581 10581 10582 10581 10581 10580 10580 10580 10580 10581 10581 10581 10581 10580 10579 10578 10578 10576 10575 10575 10574 10573 10571 10570 10570 10570 10569 10568 10567 10566 10564 10562 10560 10558 10557 10556 10554 10553 10550 10548 10546 10544 10541 10539 10536 10534 10531 10528 10525 10521 10518 10514 10511 10507 10504 10500 10497 10493 10490
10541 10543 10545 10546 10548 10550 10553 10555 10558 10560 10561 10564 10566 10567 10568 10568 10569 10570 10571 10571 10571 10573 10575 10576 10576 10576 10576 10576 10578 10578 10578 10577 10576 10576 10577 10577 10578 10578 10579 10578 10576 10575 10575 10574 10573 10572 10571 10570 10569 10568 10568 10567 10567 10566 10565 10563 10561 10560 10558 10556 10555 10554 10553 10551 10549 10547 10545 10543 10540 10538 10536 10533 10530 10527 10524 10520 10517 10513 10510 10507 10503 10500 10497 10493 10490 10486
10537 10539 10541 10542 10545 10546 10548 10550 10553 10555 10557 10559 10561 10563 10564 10564 10565 10565 10566 10566 10568 10570 10570 10571 10571 10571 10571 10573 10573 10574 10575 10574 10573 10573 10575 10575 10574 10575 10575 10575 10573 10571 10571 10570 10570 10568 10568 10566 10566 10565 10565 10565 10564 10563 10561 10560 10558 10556 10555 10553 10552 10551 10549 10547 10545 10543 10541 10539 10537 10535 10532 10529 10526 10523 10520 10516 10513 10510 10506 10503 10500 10496 10493 10490 10486 10483
10533 10535 10537 10539 10541 10542 10543 10546 10548 10550 10552 10555 10556 10558 10559 10560 10561 10561 10562 10563 10564 10565 10566 10567 10568 10568 10568 10568 10568 10570 10571 10571 10571 10570 10571 10571 10571 10571 10571 10571 10570 10568 10567 10566 10566 10565 10565 10564 10563 10563 10562 10561 10560 10559 10557 10555 10554 10552 10551 10550 10549 10548 10546 10544 10542 10540 10538 10536 10533 10531 10528 10525 10523 10519 10516 10513 10510 10506 10503 10500 10496 10493 10490 10486 10483 10479
10528 10531 10533 10535 10536 10537 10539 10541 10543 10545 10547 10550 10551 10553 10555 10555 10556 10558 10558 10560 10560 10561 10562 10563 10563 10564 10565 10565 10565 10565 10568 10569 10568 10568 10568 10568 10567 10566 10567 10567 10566 10565 10563 10563 10562 10561 10561 10561 10561 10560 10559 10558 10556 10555 10553 10551 10550 10549 10548 10547 10546 10544 10542 10540 10538 10536 10535 10532 10530 10527 10525 10521 10518 10515 10512 10509 10506 10503 10500 10496 10493 10490 10486 10483 10480 10475
10524 10526 10528 10530 10531 10532 10534 10536 10538 10540 10542 10544 10546 10548 10550 10550 10552 10553 10555 10556 10557 10558 10558 10560 10560 10560 10561 10561 10561 10561 10563 10565 10565 10564 10564 10563 10563 10563 10563 10563 10562 10561 10560 10560 10559 10559 10559 10558 10557 10556 10555 10554 10552 10551 10550 10548 10548 10546 10545 10544 10542 10541 10539 10537 10535 10533 10531 10529 10526 10523 10521 10518 10515 10511 10508 10505 10502 10499 10496 10493 10490 10486 10483 10480 10476 10472
10520 10521 10522 10524 10526 10528 10529 10531 10533 10536 10538 10540 10541 10543 10545 10546 10548 10550 10551 10552 10553 10554 10555 10556 10556 10556 10556 10557 10557 10558 10560 10561 10561 10560 10560 10560 10559 10558 10558 10559 10558 10558 10556 10556 10556 10556 10556 10555 10553 10552 10551 10550 10548 10547 10546 10545 10545 10543 10542 10541 10539 10537 10535 10534 10532 10530 10528 10525 10523 10520 10517 10514 10511 10508 10505 10502 10499 10496 10493 10490 10486 10483 10480 10476 10473 10468
10515 10516 10517 10519 10522 10524 10525 10527 10530 10532 10534 10536 10537 10539 10540 10541 10543 10545 10546 10548 10549 10550 10551 10552 10552 10552 10553 10554 10553 10554 10555 10556 10556 10556 10555 10556 10555 10554 10554 10555 10555 10555 10553 10553 10553 10552 10552 10551 10550 10548 10547 10546 10545 10544 10543 10543 10541 10540 10539 10537 10536 10534 10532 10530 10528 10526 10524 10521 10519 10516 10513 10510 10508 10505 10501 10498 10495 10492 10489 10486 10483 10480 10476 10473 10469 10465
10510 10511 10513 10516 10520 10521 10523 10525 10527 10529 10530 10532 10533 10534 10535 10537 10539 10540 10541 10543 10545 10546 10546 10547 10548 10548 10550 10550 10550 10550 10551 10551 10551 10551 10552 10552 10551 10550 10550 10551 10552 10551 10550 10550 10549 10548 10548 10547 10546 10545 10543 10543 10542 10541 10540 10540 10538 10537 10535 10534 10532 10530 10529 10527 10525 10523 10521 10518 10515 10512 10510 10506 10504 10501 10498 10495 10491 10488 10486 10483 10480 10476 10473 10470 10466 10461
10506 10509 10512 10515 10517 10519 10521 10522 10524 10525 10526 10528 10530 10530 10531 10533 10535 10536 10538 10539 10541 10541 10543 10543 10545 10545 10545 10545 10545 10545 10546 10546 10547 10548 10548 10548 10546 10546 10546 10548 10548 10547 10546 10546 10545 10545 10544 10543 10542 10541 10541 10540 10539 10538 10537 10536 10535 10533 10532 10530 10529 10527 10525 10524 10521 10520 10517 10514 10511 10509 10506 10503 10500 10497 10494 10491 10488 10485 10482 10480 10476 10473 10470 10466 10462 10458
10503 10506 10509 10511 10513 10515 10517 10518 10519 10520 10521 10522 10523 10525 10527 10529 10531 10533 10535 10536 10538 10538 10539 10540 10540 10540 10540 10540 10540 10541 10541 10542 10543 10544 10544 10543 10543 10543 10543 10544 10545 10544 10543 10542 10542 10542 10541 10540 10539 10538 10538 10537 10536 10535 10534 10533 10531 10530 10529 10527 10525 10524 10522 10520 10518 10516 10513 10510 10508 10505 10502 10500 10496 10494 10491 10488 10485 10482 10479 10476 10473 10470 10466 10463 10459 10454
10500 10502 10505 10506 10508 10510 10511 10511 10512 10513 10514 10515 10518 10520 10523 10525 10527 10529 10531 10532 10533 10533 10534 10535 10535 10535 10535 10535 10536 10536 10536 10538 10540 10540 10540 10540 10540 10539 10539 10540 10541 10541 10540 10539 10539 10538 10538 10537 10536 10535 10535 10534 10533 10532 10531 10530 10528 10527 10525 10524 10522 10520 10519 10516 10515 10512 10510 10507 10504 10501 10499 10496 10493 10490 10487 10484 10481 10478 10476 10473 10470 10466 10463 10460 10455 10451
10495 10496 10498 10500 10501 10502 10503 10505 10505 10506 10508 10511 10513 10516 10519 10521 10523 10525 10526 10526 10526 10528 10529 10529 10529 10530 10530 10531 10532 10533 10533 10535 10535 10536 10536 10537 10536 10536 10535 10536 10537 10538 10536 10536 10535 10535 10535 10533 10532 10531 10531 10530 10530 10528 10528 10526 10525 10523 10522 10520 10519 10517 10515 10513 10511 10508 10506 10503 10501 10498 10495 10493 10490 10486 10484 10481 10478 10475 10472 10469 10466 10463 10460 10456 10451 10447
10490 10491 10492 10493 10495 10496 10498 10499 10501 10503 10505 10506 10509 10511 10514 10516 10518 10520 10520 10520 10521 10523 10524 10524 10525 10525 10526 10527 10528 10528 10529 10531 10531 10531 10533 10534 10534 10533 10532 10533 10534 10534 10533 10532 10531 10531 10531 10530 10529 10528 10528 10527 10526 10525 10524 10523 10521 10520 10519 10517 10515 10513 10511 10510 10507 10505 10502 10500 10497 10495 10491 10489 10486 10483 10480 10478 10475 10471 10469 10466 10463 10460 10456 10452 10448 10444
10485 10486 10488 10489 10490 10492 10493 10495 10497 10498 10500 10502 10505 10507 10510 10511 10513 10514 10513 10515 10517 10519 10519 10520 10520 10521 10522 10523 10523 10525 10526 10526 10527 10528 10530 10531 10530 10529 10528 10530 10530 10530 10530 10529 10528 10527 10527 10526 10526 10525 10524 10523 10523 10522 10521 10520 10518 10516 10515 10513 10511 10510 10508 10506 10503 10501 10498 10496 10493 10491 10488 10485 10483 10480 10477 10474 10471 10468 10465 10463 10460 10456 10453 10449 10445 10441
10480 10482 10484 10485 10487 10488 10490 10491 10493 10494 10496 10498 10500 10503 10505 10507 10508 10509 10510 10511 10513 10515 10515 10515 10516 10518 10518 10519 10520 10521 10521 10522 10523 10525 10526 10527 10526 10525 10525 10526 10526 10526 10526 10526 10525 10523 10522 10522 10522 10522 10521 10520 10520 10519 10518 10516 10515 10513 10511 10510 10508 10506 10504 10502 10500 10497 10495 10492 10490 10487 10485 10481 10479 10476 10474 10471 10468 10465 10462 10459 10456 10453 10450 10446 10441 10437
10475 10477 10479 10481 10482 10484 10485 10486 10488 10490 10492 10494 10496 10498 10500 10502 10504 10505 10506 10508 10509 10510 10510 10511 10512 10513 10514 10515 10516 10516 10516 10517 10519 10521 10523 10523 10522 10521 10522 10523 10522 10521 10522 10522 10521 10520 10518 10518 10518 10518 10518 10518 10516 10515 10514 10513 10511 10510 10508 10506 10505 10503 10500 10498 10496 10493 10491 10488 10486 10483 10481 10478 10476 10473 10470 10468 10465 10462 10459 10456 10453 10450 10446 10443 10438 10434
10470 10471 10474 10475 10477 10479 10480 10481 10483 10485 10488 10490 10492 10494 10496 10498 10499 10501 10502 10503 10505 10505 10506 10507 10508 10509 10510 10511 10512 10512 10512 10513 10515 10517 10519 10519 10518 10518 10518 10519 10518 10518 10518 10518 10518 10518 10516 10515 10513 10514 10515 10514 10513 10511 10510 10509 10508 10506 10505 10503 10501 10498 10496 10495 10492 10490 10487 10485 10482 10480 10477 10475 10472 10470 10467 10464 10461 10458 10456 10453 10450 10446 10443 10440 10435 10430
10465 10468 10469 10471 10473 10474 10476 10477 10479 10481 10483 10485 10488 10490 10491 10493 10495 10496 10498 10499 10500 10501 10502 10503 10504 10505 10505 10506 10507 10508 10508 10510 10511 10513 10515 10515 10514 10513 10514 10515 10515 10514 10514 10515 10515 10514 10513 10512 10511 10510 10510 10510 10509 10508 10506 10505 10503 10502 10501 10500 10497 10495 10492 10490 10488 10486 10483 10481 10478 10476 10473 10471 10469 10466 10464 10461 10458 10455 10452 10449 10446 10443 10440 10436 10432 10428
10462 10464 10466 10467 10468 10470 10471 10473 10475 10477 10479 10481 10483 10485 10486 10488 10490 10491 10493 10495 10496 10497 10498 10498 10499 10500 10501 10502 10503 10504 10505 10506 10507 10508 10510 10511 10510 10510 10510 10511 10511 10511 10511 10511 10511 10510 10510 10509 10508 10507 10506 10505 10505 10504 10503 10501 10500 10498 10497 10496 10494 10491 10488 10486 10485 10482 10480 10477 10475 10472 10470 10468 10465 10463 10460 10458 10455 10452 10449 10446 10443 10440 10437 10434 10430 10425
10458 10460 10461 10463 10465 10466 10467 10469 10471 10473 10475 10476 10478 10480 10482 10483 10485 10487 10488 10490 10491 10492 10493 10494 10495 10495 10496 10497 10498 10499 10500 10501 10503 10505 10506 10506 10506 10506 10507 10508 10508 10508 10508 10507 10506 10506 10506 10505 10504 10504 10503 10501 10500 10499 10498 10498 10496 10495 10493 10491 10490 10488 10485 10483 10480 10478 10476 10473 10471 10468 10466 10464 10461 10460 10457 10454 10451 10448 10445 10443 10440 10437 10434 10430 10426 10422
10455 10456 10457 10458 10460 10461 10462 10464 10466 10468 10470 10472 10473 10475 10477 10478 10480 10481 10483 10485 10486 10487 10488 10489 10490 10491 10492 10493 10494 10495 10495 10496 10498 10501 10502 10503 10503 10503 10504 10504 10504 10505 10505 10503 10502 10502 10501 10501 10500 10500 10500 10498 10496 10494 10493 10493 10493 10491 10489 10487 10485 10483 10481 10479 10476 10475 10472 10470 10467 10465 10463 10460 10458 10456 10453 10451 10448 10445 10442 10440 10436 10434 10431 10427 10423 10419
10450 10451 10453 10454 10455 10456 10458 10460 10461 10463 10466 10467 10469 10470 10472 10473 10475 10476 10478 10480 10481 10482 10483 10484 10485 10486 10487 10488 10490 10491 10491 10493 10495 10496 10498 10499 10500 10500 10500 10500 10500 10500 10500 10499 10498 10497 10497 10496 10496 10495 10495 10494 10493 10491 10489 10488 10488 10486 10485 10483 10481 10480 10477 10475 10473 10471 10468 10466 10463 10461 10459 10457 10455 10452 10450 10447 10444 10441 10439 10436 10433 10431 10428 10425 10420 10416
10445 10446 10448 10449 10450 10451 10453 10455 10457 10459 10461 10463 10465 10466 10467 10469 10470 10472 10473 10475 10476 10477 10478 10479 10480 10481 10483 10485 10486 10487 10488 10489 10491 10492 10493 10495 10495 10496 10496 10495 10495 10495 10495 10495 10494 10493 10493 10493 10491 10491 10490 10489 10488 10488 10486 10485 10483 10482 10480 10478 10477 10475 10473 10471 10469 10466 10465 10462 10460 10458 10455 10453 10451 10449 10446 10443 10440 10438 10435 10433 10430 10428 10425 10421 10417 10413
10440 10441 10443 10445 10446 10447 10448 10450 10453 10455 10456 10458 10460 10461 10463 10464 10466 10467 10468 10470 10471 10472 10473 10475 10476 10477 10478 10480 10481 10483 10484 10485 10486 10488 10489 10490 10491 10491 10491 10491 10490 10490 10490 10490 10490 10490 10489 10488 10488 10486 10486 10485 10484 10483 10482 10481 10480 10478 10476 10475 10472 10470 10469 10467 10465 10463 10461 10458 10456 10454 10451 10450 10447 10445 10443 10440 10437 10435 10431 10429 10427 10425 10422 10418 10414 10409
10435 10436 10438 10440 10441 10443 10444 10446 10448 10450 10452 10453 10455 10456 10458 10460 10461 10462 10464 10465 10466 10467 10468 10470 10471 10473 10475 10476 10478 10479 10480 10481 10482 10483 10485 10485 10486 10486 10486 10486 10486 10485 10485 10485 10485 10485 10485 10484 10483 10483 10482 10481 10480 10479 10478 10476 10475 10474 10473 10471 10468 10466 10464 10463 10461 10459 10457 10455 10453 10450 10448 10446 10443 10441 10438 10436 10433 10431 10428 10426 10424 10421 10419 10416 10411 10406
10429 10431 10433 10435 10437 10439 10441 10442 10444 10446 10448 10450 10451 10452 10453 10455 10456 10458 10459 10460 10461 10463 10464 10465 10467 10469 10470 10472 10473 10475 10476 10476 10478 10479 10480 10481 10481 10482 10482 10481 10481 10481 10481 10481 10481 10480 10480 10480 10479 10478 10478 10477 10476 10475 10474 10473 10471 10470 10469 10467 10465 10462 10460 10459 10457 10455 10453 10451 10449 10446 10445 10443 10440 10437 10435 10432 10430 10428 10426 10424 10421 10419 10416 10412 10408 10404
10424 10426 10428 10430 10431 10434 10436 10438 10440 10442 10444 10445 10446 10448 10448 10450 10451 10453 10454 10456 10456 10458 10459 10461 10462 10464 10465 10467 10468 10470 10471 10473 10473 10475 10476 10476 10477 10477 10477 10477 10477 10477 10477 10476 10476 10476 10476 10476 10475 10475 10474 10473 10473 10471 10470 10468 10467 10466 10465 10463 10461 10459 10457 10455 10453 10451 10450 10448 10445 10443 10441 10439 10436 10433 10431 10428 10426 10424 10422 10421 10419 10416 10413 10409 10405 10400
10418 10420 10422 10425 10426 10429 10431 10433 10435 10437 10439 10441 10442 10443 10443 10445 10446 10448 10450 10451 10451 10453 10454 10456 10457 10459 10461 10462 10463 10465 10466 10468 10470 10470 10471 10472 10473 10473 10473 10473 10473 10473 10473 10473 10473 10471 10471 10471 10471 10471 10470 10470 10469 10468 10466 10465 10463 10462 10460 10459 10458 10456 10453 10450 10448 10447 10446 10444 10441 10440 10438 10435 10433 10430 10428 10425 10423 10421 10420 10418 10416 10413 10411 10406 10402 10397
10412 10415 10417 10419 10421 10424 10426 10428 10430 10432 10434 10436 10437 10438 10439 10441 10442 10443 10445 10446 10446 10448 10450 10451 10453 10455 10456 10457 10458 10460 10462 10463 10465 10466 10467 10468 10468 10468 10468 10468 10468 10469 10470 10470 10469 10468 10467 10467 10467 10466 10466 10466 10466 10464 10463 10461 10460 10458 10456 10455 10453 10452 10450 10448 10445 10443 10441 10440 10438 10436 10434 10432 10430 10426 10424 10421 10420 10418 10416 10415 10413 10410 10407 10403 10399 10395
10407 10409 10411 10414 10416 10418 10421 10423 10425 10426 10428 10431 10432 10433 10435 10436 10437 10438 10440 10441 10441 10443 10445 10446 10448 10450 10451 10451 10453 10455 10456 10458 10460 10461 10463 10463 10464 10464 10465 10465 10465 10465 10465 10465 10465 10465 10465 10464 10463 10462 10462 10462 10461 10460 10459 10458 10456 10454 10452 10450 10449 10448 10446 10444 10442 10440 10438 10436 10434 10432 10430 10428 10426 10423 10420 10418 10416 10415 10413 10412 10410 10407 10403 10399 10395 10391
10401 10403 10406 10408 10410 10413 10415 10416 10419 10421 10423 10425 10427 10428 10430 10431 10433 10434 10435 10436 10437 10438 10440 10441 10443 10445 10446 10446 10448 10450 10452 10453 10455 10456 10458 10458 10459 10460 10460 10460 10460 10461 10461 10461 10461 10461 10461 10461 10460 10459 10458 10458 10457 10456 10455 10454 10453 10450 10448 10446 10445 10443 10441 10440 10438 10436 10435 10433 10431 10428 10426 10425 10422 10420 10417 10415 10413 10411 10410 10409 10407 10405 10400 10396 10391 10388
10395 10398 10400 10401 10404 10406 10408 10411 10413 10416 10418 10420 10421 10423 10425 10427 10428 10430 10431 10431 10433 10434 10435 10436 10438 10440 10440 10441 10443 10445 10447 10448 10450 10451 10452 10453 10454 10455 10455 10455 10456 10456 10457 10457 10457 10457 10456 10456 10456 10456 10455 10454 10453 10451 10450 10449 10448 10446 10445 10442 10441 10440 10438 10436 10434 10433 10431 10430 10428 10425 10423 10421 10418 10416 10413 10411 10410 10408 10407 10406 10404 10401 10397 10393 10388 10385
10390 10392 10394 10395 10398 10400 10403 10405 10408 10410 10412 10414 10416 10418 10420 10421 10423 10425 10426 10427 10428 10430 10430 10431 10433 10435 10435 10436 10438 10440 10442 10443 10445 10446 10447 10448 10448 10449 10450 10451 10451 10452 10453 10453 10453 10453 10453 10452 10452 10452 10451 10451 10450 10448 10445 10444 10443 10442 10440 10438 10437 10436 10434 10432 10430 10429 10428 10426 10424 10422 10420 10418 10415 10413 10410 10408 10406 10405 10404 10402 10400 10398 10394 10390 10386 10383
10384 10386 10388 10389 10391 10394 10396 10399 10401 10404 10406 10408 10410 10413 10415 10416 10418 10420 10421 10422 10423 10425 10426 10426 10428 10429 10431 10432 10433 10435 10438 10439 10440 10441 10441 10443 10443 10444 10445 10446 10446 10448 10448 10448 10448 10448 10448 10448 10448 10448 10447 10447 10446 10444 10442 10440 10438 10437 10436 10435 10433 10431 10430 10428 10426 10425 10424 10422 10420 10418 10416 10414 10412 10410 10408 10406 10403 10402 10401 10399 10397 10394 10390 10386 10383 10380
10377 10379 10381 10383 10386 10388 10390 10393 10396 10399 10401 10403 10405 10407 10409 10411 10413 10415 10416 10418 10419 10420 10421 10422 10423 10425 10426 10427 10429 10431 10433 10434 10435 10436 10436 10437 10438 10440 10440 10441 10441 10443 10443 10443 10443 10443 10443 10443 10442 10442 10442 10443 10442 10441 10438 10436 10434 10433 10432 10430 10429 10428 10426 10425 10423 10421 10420 10419 10417 10415 10413 10410 10408 10406 10405 10403 10401 10399 10398 10396 10393 10390 10386 10383 10380 10377
10371 10373 10375 10377 10380 10383 10385 10388 10391 10394 10396 10398 10401 10403 10404 10406 10408 10410 10411 10413 10414 10415 10416 10418 10419 10421 10422 10423 10424 10426 10428 10429 10430 10431 10431 10432 10433 10435 10435 10436 10436 10438 10438 10438 10438 10438 10438 10438 10438 10436 10435 10436 10436 10436 10435 10432 10430 10428 10428 10426 10425 10424 10423 10421 10420 10418 10417 10415 10413 10411 10409 10406 10405 10403 10401 10400 10398 10396 10395 10393 10390 10387 10383 10380 10377 10375